Home > Weather > Melo > Past weeks

Flag for Uruguay Past Weather in Melo, Uruguay — Yesterday and Last 2 Weeks

Now
64 °F

Partly sunny.


Feels Like: 64 °F
Forecast: 48 / 55 °F
Wind: 12 mph from Northwest

Location: Pelotas Airport

Current Time: May 31, 2016 at 1:19:13 PM

Latest Report: May 31, 2016 at 12:00 PM


Visibility: N/A

Pressure: 29.89 "Hg

Humidity: 64%

Dew Point: 52 °F

Location of MeloLocation

Past Weather in Melo — Graph

°F

Melo Temperature Yesterday

Maximum temperature yesterday: 70 °F (at 12:00 PM)
Minimum temperature yesterday: 63 °F (at 1:00 AM)
Average temperature yesterday: 66 °F

High & Low Weather Summary for the Past Weeks

 TemperatureHumidityPressure
High72 °F (May 25, 2:00 PM)100% (May 20, 7:00 AM)30.45 "Hg (May 20, 7:00 AM)
Low45 °F (May 19, 7:00 AM)51% (May 17, 3:00 PM)29.80 "Hg (May 30, 1:00 AM)
Average58 °F82%30.14 "Hg
* Reported May 16 12:00 PM — May 31 12:00 PM, Melo, Weather by CustomWeather, © 2016

Note: Actual official high and low records may vary slightly from our data, if they occured in-between our weather recording intervals... More about our weather records

Advertising

Melo Weather History for the Previous 24 Hours

Scroll right to see more
 ConditionsComfort  
Time TempWeatherWind HumidityBarometerVisibility
12:00 PM
Tue, May 31
64 °FPartly sunny.12 mph64%29.89 "HgN/A
11:00 AM64 °FScattered clouds.12 mph68%29.89 "HgN/A
10:00 AM63 °FScattered clouds.7 mph83%29.89 "HgN/A
9:00 AM61 °FRain showers. Partly sunny.7 mph94%29.89 "HgN/A
8:00 AM61 °FPartly sunny.2 mph88%29.86 "HgN/A
7:00 AM61 °FPartly sunny.2 mph88%29.86 "HgN/A
3:00 AM61 °FPassing clouds.3 mph88%29.83 "HgN/A
2:00 AM59 °FPassing clouds.2 mph94%29.83 "HgN/A
11:00 PM
Mon, May 30
63 °FClear.7 mph83%29.86 "Hg10 mi
10:00 PM63 °FClear.8 mph83%29.86 "Hg10 mi
9:00 PM63 °FClear.9 mph83%29.83 "Hg10 mi
8:00 PM63 °FClear.6 mph88%29.83 "Hg10 mi
7:00 PM63 °FPassing clouds.3 mph88%29.83 "HgN/A
6:00 PM66 °FPassing clouds.7 mph73%29.80 "HgN/A
5:00 PM68 °FPassing clouds.3 mph73%29.80 "HgN/A
4:00 PM70 °FScattered clouds.6 mph69%29.80 "HgN/A
3:00 PM70 °FScattered clouds.7 mph64%29.80 "HgN/A
2:00 PM70 °FBroken clouds.5 mph69%29.80 "HgN/A
1:00 PM70 °FPartly sunny.7 mph69%29.80 "HgN/A
Weather by CustomWeather, © 2016

See weather overviewHow to use our weather pages